�N����,����,�~����,�C��,���x,�C��,����,���ϕ���,�ő�u�ԕ���,�ő厞����,���˗�,�I�_���x,�n�����x,�ő啗���N��,DTYPE
"21/07/07","00:10",0.0,27.7,76.5,1005.0,343.6,0.8,1.7,336.4,0.00,23.2,26.0,"00:09:04",1
"21/07/07","00:20",0.0,27.3,77.3,1004.8,295.3,0.5,1.2,330.3,0.00,23.0,25.9,"00:16:08",1
"21/07/07","00:30",0.0,27.1,78.0,1004.5,340.9,0.8,1.8,324.7,0.00,23.0,25.7,"00:21:04",1
"21/07/07","00:40",0.0,27.0,78.8,1004.8,294.4,0.8,1.9,5.3,0.00,23.0,26.0,"00:30:02",1
"21/07/07","00:50",0.2,26.8,79.5,1005.2,306.5,1.0,1.6,315.2,0.00,23.0,25.7,"00:40:32",1
"21/07/07","01:00",0.0,26.4,80.6,1004.8,329.2,0.7,1.9,343.9,0.00,22.8,25.8,"00:51:04",1
"21/07/07","01:10",0.0,26.2,82.3,1005.0,357.3,0.7,1.4,20.5,0.00,23.0,25.7,"01:04:16",1
"21/07/07","01:20",0.0,25.6,83.8,1004.5,297.2,0.5,0.9,321.8,0.00,22.7,25.9,"01:10:16",1
"21/07/07","01:30",0.0,25.4,85.1,1004.5,265.9,0.6,2.1,309.8,0.00,22.8,25.5,"01:23:44",1
"21/07/07","01:40",0.0,25.2,86.2,1004.3,328.4,0.7,1.7,345.7,0.00,22.8,25.6,"01:30:32",1
"21/07/07","01:50",0.0,25.2,87.2,1005.0,341.7,0.8,2.1,338.7,0.00,23.0,25.6,"01:44:40",1
"21/07/07","02:00",0.0,25.0,88.0,1004.8,341.3,1.0,1.9,328.0,0.00,22.9,25.8,"01:54:48",1
"21/07/07","02:10",0.0,24.8,88.7,1004.8,317.6,0.6,1.9,298.7,0.00,22.8,25.7,"02:09:36",1
"21/07/07","02:20",0.0,25.1,88.8,1004.8,279.3,1.3,4.1,347.2,0.00,23.2,25.7,"02:16:24",1
"21/07/07","02:30",0.0,25.5,88.2,1005.0,282.7,1.2,3.5,239.9,0.00,23.4,25.7,"02:23:44",1
"21/07/07","02:40",0.0,25.6,87.3,1004.8,298.3,1.0,2.1,68.5,0.00,23.4,25.6,"02:39:36",1
"21/07/07","02:50",0.0,25.8,86.6,1004.5,283.5,1.0,2.5,238.4,0.00,23.4,25.8,"02:48:16",1
"21/07/07","03:00",0.0,26.0,85.5,1004.5,296.3,1.1,2.6,267.6,0.00,23.4,25.7,"02:59:44",1
"21/07/07","03:10",0.0,26.2,84.4,1004.3,284.1,1.3,3.3,224.6,0.00,23.4,25.7,"03:06:40",1
"21/07/07","03:20",0.0,26.4,83.4,1003.8,281.4,1.5,2.9,257.5,0.00,23.4,25.6,"03:17:04",1
"21/07/07","03:30",0.0,26.6,82.4,1003.8,285.1,1.6,4.3,313.5,0.00,23.4,25.6,"03:27:44",1
"21/07/07","03:40",0.0,26.6,81.6,1003.8,288.0,1.6,4.1,331.9,0.00,23.2,25.5,"03:33:12",1
"21/07/07","03:50",0.0,26.5,81.3,1003.8,301.1,1.0,2.1,254.6,0.00,23.1,25.6,"03:43:36",1
"21/07/07","04:00",0.0,26.5,81.3,1003.8,272.4,1.2,3.1,260.4,0.00,23.1,25.6,"03:58:56",1
"21/07/07","04:10",0.0,26.6,81.1,1004.1,292.0,1.1,3.6,315.9,0.00,23.1,25.6,"04:08:16",1
"21/07/07","04:20",0.0,26.6,81.0,1003.6,289.9,0.8,1.8,257.2,0.00,23.1,25.4,"04:10:24",1
"21/07/07","04:30",0.0,26.5,81.4,1003.8,242.1,1.2,2.6,251.9,0.00,23.1,25.4,"04:24:16",1
"21/07/07","04:40",0.0,26.4,81.6,1003.8,236.3,0.8,2.2,234.3,0.00,23.0,25.4,"04:31:12",1
"21/07/07","04:50",0.0,26.1,82.0,1003.8,222.7,0.2,1.1,200.4,0.00,22.8,25.2,"04:40:48",1
"21/07/07","05:00",0.0,26.1,82.9,1003.6,230.1,0.6,1.2,265.6,0.00,23.0,25.6,"04:54:24",1
"21/07/07","05:10",0.0,26.0,83.4,1003.6,228.1,0.6,1.3,242.4,0.00,23.0,25.5,"05:01:52",1
"21/07/07","05:20",0.0,25.9,83.9,1003.8,228.1,0.3,1.3,338.6,0.00,23.0,25.3,"05:19:20",1
"21/07/07","05:30",0.0,25.8,84.7,1004.1,341.1,0.7,1.7,308.6,0.00,23.1,25.4,"05:21:36",1
"21/07/07","05:40",0.0,25.7,85.4,1004.1,348.4,0.7,1.6,346.5,0.00,23.1,25.3,"05:32:00",1
"21/07/07","05:50",0.0,25.5,86.2,1004.1,28.1,0.2,0.9,41.8,0.00,23.1,25.5,"05:41:04",1
"21/07/07","06:00",0.0,25.4,86.6,1004.3,328.8,0.3,1.0,307.3,0.00,23.0,25.3,"05:58:16",1
"21/07/07","06:10",0.2,25.6,87.5,1004.3,325.3,1.0,2.0,236.5,0.00,23.4,25.4,"06:08:56",1
"21/07/07","06:20",0.0,25.4,88.1,1004.1,303.1,1.0,2.5,141.2,0.00,23.3,25.3,"06:14:16",1
"21/07/07","06:30",0.2,25.2,88.6,1004.3,314.7,0.5,1.2,311.0,0.00,23.2,25.3,"06:20:08",1
"21/07/07","06:40",0.2,25.2,89.0,1004.3,349.5,0.6,1.3,300.6,0.00,23.3,25.4,"06:34:08",1
"21/07/07","06:50",0.6,25.1,89.4,1004.8,356.4,0.5,1.0,346.6,0.00,23.3,25.1,"06:43:28",1
"21/07/07","07:00",0.6,25.0,89.8,1004.3,1.5,0.6,1.1,349.4,0.00,23.2,25.4,"06:51:04",1
"21/07/07","07:10",0.8,24.9,90.2,1004.5,1.8,0.6,1.1,5.9,0.00,23.2,25.4,"07:00:32",1
"21/07/07","07:20",0.6,24.8,90.4,1004.8,43.3,0.3,0.9,3.4,0.00,23.2,25.5,"07:14:56",1
"21/07/07","07:30",1.0,24.8,90.7,1004.8,322.6,0.3,1.0,306.8,0.00,23.2,25.2,"07:23:04",1
"21/07/07","07:40",1.0,24.7,90.9,1004.3,3.0,0.2,0.6,336.3,0.00,23.2,25.4,"07:30:24",1
"21/07/07","07:50",1.0,24.8,91.1,1004.3,8.6,0.5,0.9,1.2,0.00,23.3,25.2,"07:41:52",1
"21/07/07","08:00",0.8,24.9,91.5,1004.5,345.2,0.8,1.4,344.4,0.00,23.5,25.2,"07:58:56",1
"21/07/07","08:10",0.6,24.8,91.7,1004.5,317.1,0.6,1.0,346.2,0.01,23.4,25.3,"08:00:08",1
"21/07/07","08:20",0.4,24.8,91.9,1004.1,311.6,0.3,0.9,314.2,0.01,23.4,25.2,"08:10:24",1
"21/07/07","08:30",0.4,24.8,92.1,1004.3,317.9,0.3,1.0,331.7,0.01,23.5,25.4,"08:23:36",1
"21/07/07","08:40",0.6,25.1,92.3,1004.3,342.5,0.5,1.1,346.3,0.03,23.8,25.4,"08:38:24",1
"21/07/07","08:50",0.6,25.2,92.4,1004.3,311.3,0.6,1.2,242.6,0.04,23.9,25.1,"08:48:16",1
"21/07/07","09:00",0.4,25.3,92.5,1004.1,349.4,0.5,1.3,348.2,0.06,24.0,25.1,"08:54:00",1
"21/07/07","09:10",1.0,25.2,92.7,1004.5,340.2,1.0,2.0,344.6,0.04,24.0,25.1,"09:09:36",1
"21/07/07","09:20",0.6,24.9,92.8,1004.3,328.9,1.1,2.5,337.1,0.04,23.7,25.2,"09:19:36",1
"21/07/07","09:30",1.8,24.7,93.0,1004.5,340.7,1.5,2.4,348.9,0.01,23.5,25.3,"09:21:36",1
"21/07/07","09:40",1.0,24.5,93.2,1004.5,332.3,1.1,2.2,212.4,0.00,23.4,25.0,"09:37:44",1
"21/07/07","09:50",0.8,24.6,93.3,1004.8,309.4,0.7,1.7,300.2,0.00,23.5,25.1,"09:44:40",1
"21/07/07","10:00",0.6,24.6,93.4,1005.0,295.6,0.6,1.4,330.7,0.00,23.5,25.2,"09:51:44",1
"21/07/07","10:10",1.4,24.7,93.5,1004.8,8.2,0.2,0.9,109.4,0.02,23.6,25.3,"10:08:32",1
"21/07/07","10:20",1.0,24.8,93.5,1004.8,0.8,0.5,1.0,1.8,0.02,23.7,25.3,"10:18:24",1
"21/07/07","10:30",0.6,24.8,93.6,1005.2,84.3,0.2,0.6,6.4,0.02,23.7,25.1,"10:22:40",1
"21/07/07","10:40",0.4,24.9,93.7,1004.8,172.8,0.5,1.1,202.7,0.04,23.9,25.4,"10:35:28",1
"21/07/07","10:50",0.8,24.9,93.6,1005.2,209.4,0.3,1.1,187.2,0.02,23.8,25.1,"10:40:24",1
"21/07/07","11:00",0.8,25.1,93.8,1005.2,352.1,0.3,1.0,342.4,0.05,24.1,25.2,"10:56:48",1
"21/07/07","11:10",0.2,25.1,93.8,1005.0,20.2,0.5,1.3,348.6,0.04,24.1,25.0,"11:04:08",1
"21/07/07","11:20",0.0,25.2,93.9,1005.5,329.9,0.5,1.2,349.6,0.08,24.2,25.2,"11:12:24",1
"21/07/07","11:30",0.2,25.2,93.8,1005.5,278.7,1.0,2.4,246.6,0.07,24.2,25.2,"11:21:28",1
"21/07/07","11:40",0.2,25.0,93.9,1005.5,335.6,1.0,1.9,336.3,0.03,24.0,25.1,"11:36:48",1
"21/07/07","11:50",0.2,25.0,94.0,1005.0,319.7,0.6,1.3,279.1,0.03,24.0,25.3,"11:41:20",1
"21/07/07","12:00",0.4,25.2,93.9,1005.0,330.6,0.5,1.7,340.9,0.04,24.2,25.2,"11:52:16",1
"21/07/07","12:10",0.4,25.2,93.9,1004.8,352.1,0.7,1.8,304.1,0.04,24.2,25.2,"12:09:32",1
"21/07/07","12:20",0.2,25.4,94.0,1004.8,326.7,0.6,1.4,346.2,0.07,24.4,25.3,"12:16:24",1
"21/07/07","12:30",0.0,25.3,94.1,1005.0,253.1,0.7,2.0,247.2,0.10,24.3,25.2,"12:28:08",1
"21/07/07","12:40",0.2,25.6,93.9,1004.8,294.7,0.6,1.2,5.1,0.09,24.6,25.2,"12:37:52",1
"21/07/07","12:50",0.0,25.6,93.9,1004.8,6.2,0.5,1.3,77.1,0.07,24.6,25.3,"12:45:12",1
"21/07/07","13:00",0.4,25.4,93.9,1004.8,314.6,0.8,1.9,353.5,0.08,24.4,25.4,"12:53:12",1
"21/07/07","13:10",0.6,25.3,93.7,1005.2,263.4,0.7,1.7,238.3,0.09,24.3,25.4,"13:08:48",1
"21/07/07","13:20",0.4,25.1,93.8,1004.8,310.2,0.8,1.9,275.6,0.07,24.1,25.2,"13:15:20",1
"21/07/07","13:30",0.2,24.9,93.7,1005.0,340.9,1.2,2.7,350.0,0.06,23.9,25.3,"13:24:08",1
"21/07/07","13:40",0.0,24.8,93.6,1004.3,317.9,1.0,2.1,356.5,0.06,23.7,25.3,"13:37:44",1
"21/07/07","13:50",0.0,24.7,93.4,1004.8,295.1,1.2,2.6,336.6,0.06,23.6,25.2,"13:49:36",1
"21/07/07","14:00",0.0,24.7,93.4,1005.0,339.6,0.5,1.1,349.3,0.02,23.6,25.3,"13:59:36",1
"21/07/07","14:10",0.8,24.8,93.3,1005.0,341.7,0.3,0.9,6.8,0.01,23.7,25.2,"14:09:28",1
"21/07/07","14:20",0.6,24.9,93.1,1004.8,341.1,0.5,1.9,329.6,0.02,23.7,25.3,"14:16:40",1
"21/07/07","14:30",0.6,24.8,93.2,1004.8,250.0,0.5,1.1,191.0,0.01,23.7,25.3,"14:25:04",1
"21/07/07","14:40",0.6,24.8,93.1,1005.0,250.2,0.7,1.7,245.0,0.00,23.6,25.3,"14:37:52",1
"21/07/07","14:50",2.6,24.1,93.2,1004.5,251.9,1.5,4.0,237.2,0.00,23.0,25.4,"14:43:20",1
"21/07/07","15:00",0.8,24.0,93.4,1004.3,13.9,1.2,2.7,25.8,0.00,22.9,25.4,"14:59:28",1
"21/07/07","15:10",1.0,23.9,93.5,1004.8,329.3,1.0,2.7,12.1,0.01,22.8,25.0,"15:02:32",1
"21/07/07","15:20",0.6,23.9,93.5,1004.8,325.3,0.5,1.7,347.1,0.02,22.8,25.3,"15:13:28",1
"21/07/07","15:30",0.4,23.8,93.5,1004.3,328.4,0.7,2.1,346.5,0.01,22.7,25.3,"15:26:24",1
"21/07/07","15:40",0.6,23.7,93.5,1004.5,292.8,0.8,2.0,229.9,0.00,22.6,25.3,"15:39:44",1
"21/07/07","15:50",0.8,23.7,93.6,1004.5,249.8,1.2,2.8,247.3,0.00,22.6,25.4,"15:41:04",1
"21/07/07","16:00",0.8,23.8,93.6,1004.5,248.4,1.0,2.2,238.6,0.01,22.7,25.2,"15:59:52",1
"21/07/07","16:10",0.6,23.8,93.7,1004.8,204.9,0.8,1.9,197.7,0.01,22.8,25.2,"16:04:56",1
"21/07/07","16:20",1.0,23.9,93.6,1004.8,159.8,0.3,1.2,203.9,0.00,22.8,25.1,"16:10:16",1
"21/07/07","16:30",0.4,23.9,93.7,1004.8,137.9,0.5,1.6,125.5,0.00,22.9,25.3,"16:25:52",1
"21/07/07","16:40",2.2,23.7,93.7,1004.8,180.2,0.8,2.2,139.1,0.00,22.7,25.1,"16:36:00",1
"21/07/07","16:50",2.4,23.7,93.9,1004.5,149.7,0.6,2.0,127.6,0.00,22.7,25.1,"16:42:00",1
"21/07/07","17:00",1.4,23.6,93.9,1004.5,196.3,0.7,2.0,163.0,0.00,22.6,25.1,"16:52:48",1
"21/07/07","17:10",0.6,23.4,94.0,1004.3,335.3,0.6,2.7,10.5,0.00,22.4,25.1,"17:02:00",1
"21/07/07","17:20",0.2,23.6,94.1,1004.3,269.4,0.8,2.2,338.5,0.00,22.6,25.2,"17:12:00",1
"21/07/07","17:30",0.6,23.6,94.1,1004.8,238.7,1.3,2.9,221.9,0.00,22.6,25.2,"17:23:44",1
"21/07/07","17:40",0.4,23.6,94.1,1004.3,79.1,0.5,1.3,244.2,0.00,22.6,25.0,"17:30:16",1
"21/07/07","17:50",0.4,23.7,94.1,1005.0,199.8,0.3,1.0,252.1,0.00,22.7,25.2,"17:45:52",1
"21/07/07","18:00",1.0,23.6,94.2,1004.3,43.7,0.7,1.2,326.9,0.00,22.7,25.2,"17:50:24",1
"21/07/07","18:10",0.8,23.6,94.2,1004.5,340.5,0.7,1.7,8.5,0.00,22.7,25.0,"18:01:28",1
"21/07/07","18:20",0.6,23.5,94.3,1004.8,266.3,0.6,1.4,338.1,0.00,22.6,24.9,"18:18:24",1
"21/07/07","18:30",3.0,23.4,94.5,1004.8,186.3,0.6,1.3,156.1,0.00,22.5,25.0,"18:29:28",1
"21/07/07","18:40",1.4,23.4,94.5,1004.8,165.4,0.8,1.6,168.4,0.00,22.5,25.0,"18:30:16",1
"21/07/07","18:50",0.6,23.4,94.5,1004.5,155.4,0.5,1.6,136.4,0.00,22.5,25.2,"18:40:32",1
"21/07/07","19:00",1.4,23.4,94.7,1004.3,101.9,0.3,0.9,198.6,0.00,22.5,25.0,"18:59:30",1
"21/07/07","19:10",1.0,23.2,94.6,1004.5,257.6,0.2,1.0,242.6,0.00,22.3,25.0,"19:00:56",1
"21/07/07","19:20",1.2,23.2,94.7,1005.2,194.3,0.1,0.5,263.1,0.00,22.3,24.9,"19:15:36",1
"21/07/07","19:30",1.6,23.3,94.7,1004.5,114.7,0.3,0.9,53.8,0.00,22.4,24.9,"19:28:24",1
"21/07/07","19:40",0.6,23.3,94.8,1004.5,188.6,1.0,1.9,223.5,0.00,22.5,25.0,"19:34:48",1
"21/07/07","19:50",1.2,23.2,94.8,1004.3,17.2,0.5,1.3,195.5,0.00,22.4,24.9,"19:40:16",1
"21/07/07","20:00",0.6,23.2,94.9,1005.0,291.9,0.5,1.1,261.0,0.00,22.4,24.9,"19:53:12",1
"21/07/07","20:10",0.6,23.2,94.9,1004.8,332.4,0.2,0.6,306.7,0.00,22.4,24.9,"20:01:12",1
"21/07/07","20:20",1.0,23.2,94.9,1004.8,184.1,0.2,1.0,130.8,0.00,22.4,25.0,"20:19:04",1
"21/07/07","20:30",1.4,23.2,94.9,1005.0,143.6,0.2,0.9,102.2,0.00,22.4,24.9,"20:22:16",1
"21/07/07","20:40",1.2,23.2,95.0,1004.8,120.8,0.1,0.6,104.1,0.00,22.4,24.8,"20:32:48",1
"21/07/07","20:50",0.8,23.3,95.0,1004.8,63.3,0.1,0.6,116.2,0.00,22.5,24.7,"20:46:40",1
"21/07/07","21:00",0.0,23.2,95.0,1005.0,136.7,0.2,0.9,115.1,0.00,22.4,24.8,"20:54:24",1
"21/07/07","21:10",0.0,23.3,95.1,1005.2,134.8,0.2,1.0,137.3,0.00,22.5,24.8,"21:06:08",1
"21/07/07","21:20",0.2,23.3,95.2,1005.2,157.9,0.8,1.9,179.8,0.00,22.5,24.8,"21:13:04",1
"21/07/07","21:30",0.0,23.3,95.2,1005.0,194.5,0.8,1.7,201.9,0.00,22.5,24.6,"21:22:08",1
"21/07/07","21:40",0.0,23.2,95.3,1005.0,185.0,0.2,0.8,189.0,0.00,22.4,24.8,"21:32:00",1
"21/07/07","21:50",0.0,23.3,95.4,1005.2,172.0,0.5,1.1,144.3,0.00,22.6,24.7,"21:44:00",1
"21/07/07","22:00",0.0,23.2,95.3,1005.0,30.1,0.2,0.8,44.5,0.00,22.4,24.8,"21:55:04",1
"21/07/07","22:10",0.0,23.2,95.4,1004.8,25.8,0.2,0.8,4.9,0.00,22.5,24.7,"22:08:08",1
"21/07/07","22:20",0.0,23.3,95.4,1005.0,349.3,0.2,0.9,343.8,0.00,22.6,24.8,"22:15:28",1
"21/07/07","22:30",0.0,23.3,95.4,1004.3,346.6,0.5,1.3,341.2,0.00,22.6,24.7,"22:23:04",1
"21/07/07","22:40",0.0,23.2,95.4,1004.5,13.2,0.2,0.9,322.4,0.00,22.5,24.6,"22:31:12",1
"21/07/07","22:50",0.0,23.2,95.4,1004.1,27.4,0.2,0.8,352.8,0.00,22.5,24.6,"22:42:40",1
"21/07/07","23:00",0.0,23.2,95.5,1004.1,90.1,0.1,0.9,58.0,0.00,22.5,24.6,"22:54:24",1
"21/07/07","23:10",0.0,23.3,95.5,1004.1,313.5,0.5,0.9,332.7,0.00,22.6,24.6,"23:09:04",1
"21/07/07","23:20",0.0,23.4,95.5,1004.1,325.3,0.8,1.3,343.5,0.00,22.7,24.5,"23:18:08",1
"21/07/07","23:30",0.2,23.2,95.5,1004.1,303.6,0.5,0.8,334.2,0.00,22.5,24.5,"23:21:12",1
"21/07/07","23:40",0.0,23.2,95.6,1004.1,335.3,0.5,0.9,343.1,0.00,22.5,24.4,"23:35:44",1
"21/07/07","23:50",0.0,23.3,95.6,1004.1,336.5,0.6,1.0,5.7,0.00,22.6,24.4,"23:47:28",1
"21/07/07","24:00",0.0,23.2,95.7,1004.3,335.1,0.5,0.9,355.4,0.00,22.5,24.6,"23:50:24",1
